Location: Acheville
(50.3840°N, 2.8827°E)
Time: 11:03:37
(UTC+00:00)

Cosmos 2369 Rocket - Pass Details

Date: 24 October 2021
Orbit: 829 x 852 km, 71.0° (Epoch: 30 November)

Event Time Altitude Azimuth Distance (km) Brightness Sun altitude
Rises 19:05:54 0° 328° (NNW) 3,384 5.9 -24.0°
Reaches altitude 10° 19:10:22 10° 2° (N) 2,448 4.7 -24.7°
Maximum altitude 19:12:12 12° 21° (NNE) 2,341 4.4 -25.0°
Enters shadow 19:12:30 11° 24° (NNE) 2,344 4.4 -25.1°
